{"data":{"norad_id":54085,"epoch":"2026-05-24T22:23:04.079904Z","epoch_age_seconds":80568,"freshness":"FRESH","line1":"1 54085U 22136AL  26144.93268611 -.00003171  00000+0 -18132-3 0  9990","line2":"2 54085  53.2153 351.8882 0001792  86.8980 273.2217 15.08817980198498","mean_motion":15.0881798,"eccentricity":0.0001792,"inclination_deg":53.2153,"raan_deg":351.8882,"arg_perigee_deg":86.898,"mean_anomaly_deg":273.2217,"bstar":-0.00018132,"rev_number":19849,"period_min":95.438947513072,"perigee_km":538.57099988629,"apogee_km":541.05039234058,"semimajor_km":6917.9476961134,"source":"CELESTRAK","updated_at":"2026-05-25T13:38:17.654053Z"}}